Tracking 31027 objects as of 19-Jul-2025
HD Live streaming from Space Station
objects crossing your sky now

RADCAL

Track RADCAL now!
10-day predictions
RADCAL is classified as:


NORAD ID: 22698
Int'l Code: 1993-041A
Perigee: 755.9 km
Apogee: 881.7 km
Inclination: 89.5 °
Period: 101.1 minutes
Semi major axis: 7189 km
RCS: 0.589 m2 (medium)
Launch date: June 25, 1993
Source: United States (US)
Launch site: AIR FORCE WESTERN TEST RANGE (AFWTR)

This spacecraft was used to help calibrate radar target cross section data.
Your satellite tracking list
OBJECT A
Track 1 satellite(s)




NASA's NSSDC Master Catalog

Two Line Element Set (TLE):
1 22698U 93041A   25199.37124459  .00000087  00000-0  30890-4 0  9994
2 22698  89.4952  79.5541 0087499 197.0298 162.7955 14.24067526664682
Source of the keplerian elements: AFSPC